Pine Ridge, SD

8:01 AM MDT on May 21, 2018 (GMT -0600)
Pine Ridge

Weather History for KIEN - May, 2014

Change the Weather History Date:

Sunday, May 4, 2014

  Actual Average Record
Temperature  
Mean Temperature 53 °F 52 °F  
Max Temperature 68 °F 66 °F 90 °F (2000)
Min Temperature 38 °F 37 °F 19 °F (2013)
Degree Days  
Heating Degree Days 12 14  
Month to date heating degree days 61 57  
Since 1 July heating degree days 7098 6877  
Cooling Degree Days 0 0  
Month to date cooling degree days 0 0  
Year to date cooling degree days 1 0  
Growing Degree Days 2 (Base 50)    
Moisture  
Dew Point 39 °F    
Average Humidity 67    
Maximum Humidity 92    
Minimum Humidity 42    
Precipitation  
Precipitation 0.00 in 0.09 in 0.10 in (2012)
Month to date precipitation 0.00 0.40  
Year to date precipitation 3.77 3.97  
Sea Level Pressure  
Sea Level Pressure 29.85 in    
Wind  
Wind Speed 12 mph (ESE)    
Max Wind Speed 20 mph    
Max Gust Speed 25 mph    
Visibility 10 miles    
Events      
T = Trace of Precipitation, MM = Missing Value Source: NWS Daily Summary

Daily Weather History Graph

Daily Weather History Graph

Search for Another Location

Airport or City:

Astronomy

May. 04, 2014 Rise Set
Actual Time 5:39 AM MDT 7:54 PM MDT
Civil Twilight 5:08 AM MDT 8:26 PM MDT
Nautical Twilight 4:29 AM MDT 9:05 PM MDT
Astronomical Twilight 3:46 AM MDT 9:48 PM MDT
Moon 10:05 AM MDT (5/4) 12:01 AM MDT (5/4)
Length of Visible Light 15h 17m
Length of Day
14h 14m
Waxing Crescent, 28% of the Moon is Illuminated
May 4
Waxing Crescent
May 6
First Quarter
May 14
Full
May 21
Last Quarter
May 28
New

Hourly Weather History & Observations

Time (MDT) Temp. Windchill Dew Point Humidity Pressure Visibility Wind Dir Wind Speed Gust Speed Precip Events Conditions
12:52 AM 42.1 °F 36.6 °F 37.9 °F 85% 29.93 in 10.0 mi ENE 9.2 mph - N/A   Clear
1:52 AM 42.1 °F 36.1 °F 37.9 °F 85% 29.92 in 10.0 mi ENE 10.4 mph - N/A   Partly Cloudy
2:52 AM 42.1 °F 35.2 °F 37.0 °F 82% 29.90 in 10.0 mi East 12.7 mph - N/A   Partly Cloudy
3:52 AM 41.0 °F 34.3 °F 37.9 °F 89% 29.88 in 10.0 mi East 11.5 mph - N/A   Clear
4:52 AM 39.9 °F 34.5 °F 37.0 °F 89% 29.91 in 10.0 mi ENE 8.1 mph - N/A   Clear
5:52 AM 39.0 °F 32.3 °F 35.1 °F 86% 29.92 in 10.0 mi ENE 10.4 mph - N/A   Clear
6:52 AM 39.0 °F 31.8 °F 33.1 °F 79% 29.95 in 10.0 mi East 11.5 mph - N/A   Clear
7:52 AM 42.1 °F 34.9 °F 34.0 °F 73% 29.95 in 10.0 mi East 13.8 mph 20.7 mph N/A   Clear
8:52 AM 46.0 °F 39.9 °F 35.1 °F 66% 29.93 in 10.0 mi ESE 13.8 mph - N/A   Clear
9:52 AM 48.9 °F - 36.0 °F 61% 29.92 in 10.0 mi SE 16.1 mph 25.3 mph N/A   Scattered Clouds
10:03 AM 48.9 °F - 36.0 °F 61% 29.92 in 10.0 mi SE 13.8 mph 21.9 mph N/A   Mostly Cloudy
10:52 AM 53.1 °F - 37.0 °F 55% 29.89 in 10.0 mi ESE 13.8 mph 23.0 mph N/A   Mostly Cloudy
11:06 AM 53.1 °F - 37.9 °F 57% 29.89 in 10.0 mi SE 13.8 mph 23.0 mph N/A   Scattered Clouds
11:52 AM 55.0 °F - 37.9 °F 53% 29.86 in 10.0 mi SE 12.7 mph - N/A   Clear
12:52 PM 60.1 °F - 39.9 °F 47% 29.81 in 10.0 mi SSE 16.1 mph 23.0 mph N/A   Clear
1:52 PM 63.0 °F - 41.0 °F 45% 29.79 in 10.0 mi SE 17.3 mph 23.0 mph N/A   Clear
2:52 PM 64.9 °F - 42.1 °F 43% 29.76 in 10.0 mi South 12.7 mph - N/A   Clear
3:52 PM 66.9 °F - 42.1 °F 40% 29.73 in 10.0 mi SSE 15.0 mph 20.7 mph N/A   Clear
4:52 PM 66.0 °F - 42.1 °F 42% 29.70 in 10.0 mi SE 13.8 mph - N/A   Clear
5:52 PM 64.9 °F - 43.0 °F 45% 29.73 in 10.0 mi ESE 9.2 mph - N/A   Clear
6:52 PM 64.0 °F - 44.1 °F 48% 29.74 in 10.0 mi ENE 9.2 mph - N/A   Clear
7:52 PM 59.0 °F - 42.1 °F 53% 29.79 in 10.0 mi ENE 16.1 mph - N/A   Clear
8:52 PM 55.9 °F - 41.0 °F 57% 29.81 in 10.0 mi East 11.5 mph - N/A   Clear
9:52 PM 57.0 °F - 41.0 °F 55% 29.81 in 10.0 mi East 8.1 mph - N/A   Clear
10:52 PM 57.0 °F - 41.0 °F 55% 29.79 in 10.0 mi Variable 4.6 mph - N/A   Clear